Live-Position
3D-Globus wird geladen...
Über OneWeb SL0113
Group: 3 satellites
Beschreibung wird geladen...
Nächste Überflüge
Passes for default location (London). Set your location on the main map for personalized predictions.
Höhenverlauf
Loading altitude history...
No altitude history available
Zweizeiliger Elementsatz
1 48050U 21025J 26125.06535007 -.00003576 00000-0 -97680-2 0 9994
2 48050 87.8962 328.7326 0001847 87.2544 272.8797 13.13916051247948
Epoch: 5. Mai 2026 •
Age: 14 hours
Aktueller Status
Höhe 1231.5 km
Geschwindigkeit 7.24 km/s
Subsatellitenpunkt -57.29°S,
54.88°E
Startdatum 25. März 2021
Alter 5.1 years
Typ internet
Startgruppe
Unknown Vehicle •
OneWeb Launch 5 •
36 satellites
OneWeb SL0115
48042
OneWeb SL0152 48043
OneWeb SL0153 48044
OneWeb SL0154 48045
OneWeb SL0116 48046
OneWeb SL0150 48047
OneWeb SL0107 48048
OneWeb SL0101 48049
OneWeb SL0112 48051
OneWeb SL0156 48052
OneWeb SL0161 48053
OneWeb SL0158 48054
OneWeb SL0157 48055
OneWeb SL0162 48056
OneWeb SL0155 48057
OneWeb SL0149 48058
OneWeb SL0148 48059
OneWeb SL0160 48060
OneWeb SL0163 48061
OneWeb SL0159 48062
...and 15 more
Technische Details
Klassifizierung Payload
Masse 148.00 kg
Trockenmasse 140.00 kg
Gesamtmasse 148.00 kg
Länge 1.30 m
Durchmesser 1.00 m
Spannweite 5.00 m
Form Trapezoid+2 pan
Hersteller ONEWUS
Bus-Typ ARROW
Phasenstatus In Orbit
Besitzer/Staat ONEWEBN/UK
Most Searched
Loading...